Location: Volkssternwarte_EN
(51.3230°N, 7.4010°E)
Time: 07:13:00
(UTC+01:00)

BlueWalker 3 - Pass Details

Date: 04 December 2022
Orbit: 499 x 517 km, 53.2° (Epoch: 28 January)

Event Time Altitude Azimuth Distance (km) Brightness Sun altitude
Rises 17:55:31 0° 277° (W) 2,633 6.8 -13.5°
Reaches altitude 10° 17:57:44 10° 281° (W) 1,742 5.7 -13.8°
Maximum altitude 18:01:40 66° 4° (N) 564 2.0 -14.4°
Enters shadow 18:03:39 27° 80° (E) 1,007 2.8 -14.7°
